Wetbulb
60.09 54.67 55.20 53.14 45.91 42.33 38.16 42.96 48.65 48.01 48.23 49.19 51.57 53.38 53.73 54.44 53.71 49.42 63.81 67.48 68.18 68.46 69.42 69.76 71.38 71.94 71.89 71.89 71.44 71.49 71.04 69.43 69.36 68.99 69.07 69.19 69.20 68.55 68.31 68.33 69.22 68.29 68.06 68.15 67.84 68.23 68.33 68.23 68.80
56.72 56.36 52.87 48.61 40.75 36.25 36.22 44.03 45.96 49.51 51.05 51.59 51.51 51.38 52.35 53.47 59.45 61.07 63.55 67.54 67.83 67.87 68.86 69.21 70.41 71.63 71.93 71.77 71.32 71.29 70.56 69.34 69.09 68.58 68.48 69.04 69.81 68.84 68.29 68.10 68.35 67.48 67.34 67.65 67.74 68.16 68.26 68.10 68.26
56.48 56.38 48.58 45.22 39.90 36.11 38.13 43.25 48.04 49.97 51.15 49.64 48.05 52.55 53.20 56.04 59.63 61.76 66.43 66.98 66.86 67.19 68.14 68.86 70.25 71.45 71.60 71.37 70.96 70.80 70.28 69.60 69.07 69.10 68.36 68.58 69.63 68.63 68.37 67.50 68.01 67.83 67.34 67.73 67.23 67.07 67.25 67.31 67.26
52.34 51.53 48.53 41.68 39.44 40.40 41.79 45.57 49.06 47.72 49.30 50.17 50.54 49.83 55.16 60.26 61.14 63.61 67.05 66.14 66.38 67.18 68.25 68.93 70.38 71.05 71.28 71.11 70.75 70.65 70.00 68.37 68.32 68.95 68.29 67.98 68.38 68.60 68.60 67.94 67.69 67.67 67.37 67.28 66.88 66.55 66.64 66.66 66.62
50.10 48.01 42.38 39.95 39.04 41.96 44.94 49.02 48.83 46.71 47.22 47.09 49.02 49.03 53.64 60.36 63.91 64.55 65.25 66.21 65.33 66.39 67.50 68.45 69.50 70.41 71.01 70.87 70.82 70.62 69.73 68.29 67.86 68.41 68.02 67.62 67.60 68.20 68.73 68.06 67.50 67.49 68.04 67.11 66.85 66.66 66.25 66.04 65.88
46.16 46.67 40.84 38.79 39.05 42.76 44.12 47.24 47.68 45.88 46.89 47.26 51.16 52.33 53.75 61.08 62.61 62.86 66.02 64.90 65.78 65.99 67.49 68.08 66.52 68.10 69.48 70.30 70.65 70.24 69.65 68.46 67.78 67.84 67.69 67.09 67.08 67.54 68.53 68.32 67.52 67.27 67.22 66.25 66.81 66.41 65.86 65.49 65.08
44.22 43.58 39.54 38.64 40.33 41.74 44.37 46.85 45.63 45.29 45.80 44.68 49.84 50.53 54.75 58.69 61.78 62.58 65.46 65.19 64.96 66.36 66.69 66.80 66.63 66.41 66.23 67.46 68.57 68.95 68.84 68.46 68.05 67.75 67.37 67.02 66.81 66.53 67.10 68.76 68.26 66.97 66.22 65.59 66.60 66.11 65.52 64.87 64.17
46.80 44.98 39.90 39.89 39.87 40.49 45.46 45.87 45.86 45.79 46.22 50.03 51.72 49.68 51.39 57.91 61.96 61.85 65.07 64.53 64.72 64.81 65.27 65.01 65.28 65.64 65.27 65.77 65.34 66.00 66.64 66.81 66.53 65.67 64.57 63.90 63.81 63.85 64.09 63.49 66.55 67.51 66.59 66.22 66.05 65.61 65.04 64.18 63.21
48.90 42.16 39.92 42.38 41.60 42.05 45.34 44.23 45.79 46.93 48.09 48.59 51.33 53.70 57.04 61.75 61.47 59.95 62.87 63.16 63.29 63.66 63.69 63.93 64.21 64.42 64.48 64.73 63.58 63.45 63.67 63.69 63.36 62.84 61.79 61.12 61.57 60.97 61.23 61.80 64.12 65.43 65.75 65.54 65.03 64.35 63.51 62.81 62.05
44.09 41.43 43.59 45.06 44.16 43.68 45.27 45.38 45.09 45.16 45.34 46.38 54.06 58.74 60.85 61.12 59.75 58.44 60.59 61.70 62.10 62.30 62.38 63.27 62.92 63.63 64.16 65.48 64.02 63.85 62.88 62.08 61.97 61.43 60.99 61.60 60.61 60.74 60.55 59.07 61.07 62.73 62.94 64.49 63.60 62.71 61.90 60.61 59.08
43.79 42.01 45.47 44.67 45.95 47.42 45.62 43.63 45.43 44.10 41.86 46.88 53.92 57.01 58.61 58.70 58.38 58.38 58.95 61.91 62.44 62.99 63.53 62.81 62.98 63.38 62.90 63.04 63.09 63.33 62.96 62.22 62.05 60.88 61.20 60.72 59.79 59.66 58.96 57.89 57.83 57.65 58.13 58.00 58.90 58.93 58.09 58.37 57.01
41.52 45.38 45.27 46.32 45.65 46.34 45.39 45.54 43.95 43.40 44.03 48.17 56.57 58.61 58.16 57.79 57.92 58.30 58.95 59.97 61.78 63.37 63.87 64.47 64.35 64.17 62.39 62.69 62.86 63.21 62.81 62.53 62.24 62.26 62.30 59.92 58.32 57.66 59.12 58.20 57.90 57.32 57.34 57.11 56.97 57.74 58.04 57.33 57.64
42.78 42.39 45.03 45.48 45.23 45.67 46.27 43.33 43.39 42.94 44.05 49.06 55.74 58.03 57.41 57.60 58.16 58.81 59.89 60.73 61.44 62.86 63.64 63.96 64.11 63.93 63.49 62.57 62.74 62.99 62.36 62.53 62.49 62.58 62.25 60.63 59.27 58.28 58.64 58.67 58.63 58.04 57.00 57.41 56.80 56.52 56.93 56.78 57.03
44.81 44.23 43.38 43.67 43.44 44.67 44.09 41.50 42.99 43.09 44.66 48.21 54.34 55.14 56.28 57.45 58.07 58.04 58.76 59.33 61.05 63.47 63.49 63.97 64.05 63.85 64.11 63.19 62.74 62.59 63.42 62.80 62.21 62.16 62.12 61.43 59.98 59.12 58.78 58.10 58.15 57.71 57.16 56.71 56.56 56.08 55.85 55.78 56.14
44.04 40.71 41.18 41.47 43.29 43.84 43.77 40.28 40.71 43.43 44.97 45.56 46.78 50.34 54.79 55.77 56.74 57.16 57.74 58.62 61.22 62.86 64.05 64.05 64.18 63.99 63.70 63.64 63.60 63.18 62.96 64.05 63.69 62.90 62.24 61.97 60.92 59.47 58.92 58.02 57.65 58.18 57.56 57.06 56.04 55.11 54.73 54.29 54.91
41.17 39.23 35.52 40.39 42.56 42.25 42.38 37.25 42.70 42.73 43.55 42.88 43.61 43.44 48.14 52.62 55.09 56.22 57.36 58.33 59.52 60.97 63.21 64.18 65.14 63.99 63.18 64.60 64.60 63.74 63.55 63.03 62.71 63.91 63.60 62.79 61.66 60.13 58.20 57.72 57.93 57.99 57.47 56.27 55.11 54.19 53.69 53.19 52.84
36.36 32.07 34.28 36.96 41.74 41.36 39.99 36.90 41.26 42.92 42.48 41.48 41.12 42.80 45.70 47.56 50.72 53.99 56.77 57.85 58.78 60.35 61.47 63.25 64.02 63.47 62.56 63.84 65.24 64.96 64.79 64.28 64.33 64.28 64.03 63.83 62.94 61.17 59.02 57.08 56.92 57.10 56.32 55.40 54.84 53.68 52.60 51.74 52.02
31.44 31.37 34.43 34.35 39.31 38.98 36.80 36.67 39.43 42.12 42.19 41.94 41.15 41.07 43.88 45.32 48.79 51.38 55.81 57.58 58.48 59.38 60.59 61.78 63.39 63.40 62.81 63.66 65.07 65.01 64.75 64.50 64.55 64.19 63.91 64.02 63.80 62.77 60.74 58.18 57.40 57.19 56.13 56.70 56.16 55.06 54.61 53.76 53.43
37.61 35.24 34.91 35.66 39.34 37.94 36.83 36.60 39.10 40.73 40.31 41.39 39.50 40.84 41.63 42.91 43.89 44.67 45.94 46.10 47.43 51.57 58.50 60.67 62.54 63.18 63.09 61.85 63.19 63.38 63.13 63.65 63.82 64.08 64.01 63.74 63.73 63.73 62.87 60.87 59.59 58.41 57.57 57.21 56.72 55.66 54.67 53.96 53.58
36.53 34.58 32.44 36.00 38.81 37.02 36.47 37.50 38.97 39.84 39.99 41.11 41.60 41.13 42.48 41.43 42.64 43.87 44.26 43.90 44.97 45.52 46.35 51.94 61.46 63.09 62.97 62.41 62.70 63.77 63.74 63.71 64.18 64.58 64.14 63.80 63.61 63.68 63.24 62.59 60.58 59.36 58.47 56.92 56.56 55.78 54.56 54.07 52.88
36.62 34.54 33.00 34.65 36.48 36.08 34.09 33.05 37.00 39.99 39.79 40.08 40.27 41.12 41.54 41.40 42.79 43.88 44.84 45.36 45.55 44.93 45.70 46.98 50.86 61.16 63.20 62.73 63.67 62.77 62.87 62.68 62.75 63.08 63.10 63.31 63.23 62.91 62.86 62.68 62.16 60.73 58.92 57.62 56.57 55.98 55.10 54.02 52.89
34.18 38.68 37.56 36.05 33.71 29.05 33.17 25.98 32.27 35.91 37.15 38.53 40.10 39.33 40.55 43.37 43.53 44.34 45.77 45.23 45.69 48.03 47.64 45.82 46.50 51.65 60.98 62.76 63.04 62.29 61.18 60.00 61.66 62.20 62.57 62.58 62.55 62.33 62.19 61.94 61.45 60.54 59.66 57.84 57.00 56.52 56.03 54.83 53.28
35.83 39.18 37.55 35.96 33.54 30.06 28.98 26.86 30.07 34.40 35.00 37.47 38.65 40.12 39.88 42.19 43.67 43.88 44.46 46.53 46.44 48.80 47.91 43.13 46.86 51.81 58.42 60.58 62.67 61.55 59.80 59.69 59.71 60.34 60.54 61.07 61.70 61.84 61.69 61.12 60.47 59.90 59.32 58.34 57.52 56.24 55.20 54.89 54.08
39.94 37.27 35.92 33.65 31.32 24.63 28.10 27.63 27.93 31.82 35.30 36.32 38.00 39.76 41.47 41.43 42.47 43.56 44.83 46.21 45.77 47.16 49.14 45.84 49.04 51.27 54.12 56.70 60.42 60.05 58.86 58.17 57.97 57.84 58.08 57.81 58.12 54.13 52.60 54.69 56.37 57.19 57.47 56.81 56.52 56.16 55.16 54.81 54.21
37.30 32.31 24.33 23.26 23.04 22.97 25.32 25.75 30.74 34.92 37.02 38.51 39.36 39.77 40.52 40.98 41.17 42.19 43.06 43.47 43.75 44.50 46.97 50.56 51.32 51.11 52.54 53.91 54.28 54.72 54.86 55.33 54.70 53.82 52.06 50.06 48.54 47.94 47.59 47.95 47.75 48.05 48.46 49.17 49.74 49.87 49.97 50.19 51.99
32.91 32.45 24.20 18.24 19.79 22.93 26.20 25.18 31.46 35.54 39.29 40.36 41.97 40.92 40.57 40.48 41.22 41.82 42.66 42.82 43.13 43.77 44.15 45.06 45.83 45.64 47.10 47.87 47.71 48.71 49.64 48.32 47.01 46.23 44.58 43.57 43.19 42.98 43.38 43.72 44.20 44.56 45.12 45.10 45.39 45.98 45.92 46.16 45.99
32.79 30.18 34.56 26.36 16.20 21.79 24.87 28.31 34.85 35.60 36.91 38.77 39.31 40.16 39.70 40.67 40.90 41.39 42.06 41.81 41.70 41.90 42.54 42.82 43.43 43.36 43.63 43.61 44.19 43.71 43.58 42.85 41.67 41.28 41.40 40.66 40.73 41.76 40.65 40.95 41.14 41.53 41.87 41.97 42.21 41.95 41.66 41.78 41.63
34.79 36.85 29.61 28.26 19.25 17.00 22.97 23.78 28.14 31.82 34.14 37.45 38.17 38.98 39.58 40.76 40.99 40.99 41.00 40.87 40.59 40.72 40.81 41.46 41.58 41.09 41.20 41.45 41.91 41.46 41.00 40.62 39.86 39.86 39.01 38.77 38.92 38.93 38.74 38.74 38.92 38.95 39.27 39.33 39.42 39.16 39.70 38.31 38.64
32.48 31.39 31.95 32.62 27.34 19.85 17.59 24.41 32.60 35.11 36.61 37.92 39.01 40.29 40.83 40.76 41.15 40.69 40.53 40.50 40.31 40.21 39.81 39.99 40.22 40.15 39.99 40.35 40.05 39.39 38.70 38.59 38.31 37.77 37.24 37.26 37.66 37.47 37.21 37.23 37.31 37.37 37.45 37.30 37.17 36.67 36.17 35.70 36.11
34.11 33.64 33.15 27.61 25.48 25.92 25.42 26.76 35.63 36.18 36.63 39.78 39.11 40.55 40.80 41.56 40.88 39.98 39.92 39.69 39.37 38.89 38.65 38.72 39.00 39.39 39.16 38.94 38.21 37.64 37.33 36.67 36.20 35.68 35.43 35.73 35.53 35.80 35.65 35.41 35.77 35.71 35.64 35.26 35.39 34.14 34.04 34.15 34.23
MSLP
1013.78 1013.30 1013.47 1013.84 1015.40 1015.88 1015.64 1015.41 1014.83 1014.92 1014.99 1015.17 1014.94 1015.61 1017.24 1017.80 1018.38 1019.22 1018.90 1019.39 1019.81 1020.38 1020.72 1020.91 1021.14 1021.23 1021.17 1021.34 1021.78 1021.92 1022.05 1022.12 1022.18 1022.29 1022.28 1022.34 1022.36 1022.44 1022.47 1022.57 1022.56 1022.67 1022.76 1022.75 1022.76 1022.97 1023.03 1023.06 1023.08
1013.78 1013.36 1013.52 1014.54 1015.74 1016.21 1016.01 1015.26 1015.30 1015.09 1015.18 1015.09 1015.57 1016.37 1017.15 1018.65 1018.51 1018.89 1019.22 1019.73 1019.97 1020.51 1020.90 1021.08 1021.29 1021.42 1021.52 1021.82 1022.10 1022.21 1022.35 1022.46 1022.55 1022.70 1022.70 1022.70 1022.68 1022.78 1022.90 1023.05 1023.15 1023.11 1023.25 1023.23 1023.25 1023.41 1023.53 1023.49 1023.52
1013.85 1013.83 1014.48 1014.95 1015.66 1015.79 1015.51 1015.45 1015.18 1015.26 1015.11 1015.31 1015.94 1016.36 1017.39 1018.81 1018.85 1018.80 1019.27 1019.68 1020.08 1020.60 1020.99 1021.25 1021.43 1021.68 1021.89 1022.17 1022.44 1022.60 1022.63 1022.78 1022.90 1022.96 1023.00 1023.18 1023.27 1023.27 1023.34 1023.50 1023.54 1023.60 1023.64 1023.66 1023.69 1023.81 1023.92 1023.96 1023.97
1013.96 1014.01 1014.70 1014.95 1015.42 1014.68 1014.67 1015.12 1014.74 1015.15 1015.24 1015.44 1016.16 1017.54 1017.92 1018.16 1018.65 1018.85 1019.31 1019.68 1020.19 1020.95 1021.30 1021.49 1021.64 1021.89 1022.09 1022.41 1022.65 1022.90 1023.03 1023.18 1023.24 1023.28 1023.42 1023.56 1023.62 1023.66 1023.76 1023.88 1023.98 1024.07 1024.04 1024.12 1024.19 1024.36 1024.44 1024.42 1024.46
1014.13 1014.58 1014.96 1015.26 1014.94 1014.63 1014.55 1014.51 1014.61 1015.30 1015.55 1015.69 1016.08 1017.97 1018.44 1018.55 1018.35 1018.96 1019.39 1019.76 1020.42 1020.96 1021.42 1021.81 1022.07 1022.30 1022.43 1022.59 1022.82 1023.03 1023.27 1023.38 1023.51 1023.62 1023.80 1023.93 1024.04 1024.04 1024.00 1024.17 1024.31 1024.44 1024.31 1024.52 1024.69 1024.85 1024.91 1024.87 1024.84
1014.70 1014.84 1015.31 1015.41 1014.95 1014.43 1014.32 1014.30 1014.61 1015.17 1015.45 1015.96 1016.82 1017.81 1018.88 1018.82 1018.72 1019.52 1019.82 1020.24 1020.64 1020.83 1021.23 1021.75 1022.24 1022.45 1022.64 1022.80 1022.97 1023.24 1023.42 1023.56 1023.72 1023.89 1024.05 1024.20 1024.27 1024.35 1024.32 1024.31 1024.58 1024.79 1024.78 1024.92 1025.06 1025.25 1025.33 1025.34 1025.26
1014.70 1015.28 1015.29 1015.31 1014.93 1014.39 1014.18 1013.96 1014.55 1015.11 1015.26 1015.63 1016.21 1018.08 1019.14 1019.20 1019.09 1019.61 1020.03 1020.37 1020.83 1021.43 1021.46 1021.67 1022.29 1022.64 1022.86 1023.13 1023.26 1023.48 1023.62 1023.83 1024.00 1024.23 1024.45 1024.64 1024.73 1024.76 1024.73 1024.70 1024.81 1024.97 1025.10 1025.20 1025.38 1025.50 1025.59 1025.59 1025.56
1014.51 1014.95 1015.16 1015.01 1014.83 1014.57 1014.20 1014.26 1014.73 1014.94 1015.43 1015.38 1015.98 1017.91 1019.08 1018.92 1018.94 1019.45 1020.27 1020.79 1021.10 1021.45 1021.86 1022.22 1022.33 1022.78 1023.09 1023.36 1023.49 1023.66 1023.80 1023.96 1024.21 1024.46 1024.70 1024.85 1024.91 1025.00 1025.07 1025.14 1025.07 1025.15 1025.34 1025.58 1025.77 1025.91 1025.95 1025.91 1025.83
1014.33 1014.88 1015.03 1014.76 1014.68 1014.52 1014.34 1014.59 1014.88 1015.09 1015.47 1016.14 1016.56 1017.00 1017.40 1018.30 1018.88 1019.72 1020.52 1020.96 1021.40 1021.68 1021.85 1022.20 1022.60 1022.76 1023.04 1023.36 1023.66 1023.83 1024.02 1024.21 1024.46 1024.63 1024.84 1025.00 1025.16 1025.26 1025.33 1025.34 1025.29 1025.39 1025.56 1025.76 1025.94 1026.10 1026.16 1026.17 1026.08
1014.71 1014.91 1014.54 1014.23 1013.87 1014.20 1014.37 1014.59 1014.97 1015.60 1016.25 1017.12 1017.32 1017.27 1017.96 1018.43 1019.07 1019.76 1020.55 1021.09 1021.30 1021.47 1021.86 1021.95 1022.35 1022.87 1023.01 1023.25 1023.76 1023.98 1024.19 1024.37 1024.54 1024.74 1024.97 1025.14 1025.31 1025.45 1025.59 1025.66 1025.67 1025.76 1025.91 1026.06 1026.18 1026.31 1026.38 1026.45 1026.50
1014.76 1014.63 1014.06 1014.10 1013.51 1013.63 1014.50 1014.93 1014.91 1015.76 1016.59 1016.88 1017.47 1017.84 1018.40 1018.79 1019.36 1019.86 1020.34 1020.65 1021.12 1021.35 1021.79 1022.10 1022.19 1022.67 1023.12 1023.43 1023.80 1024.11 1024.32 1024.53 1024.70 1024.78 1024.97 1025.21 1025.36 1025.58 1025.81 1025.95 1026.05 1026.11 1026.17 1026.32 1026.34 1026.42 1026.50 1026.55 1026.56
1014.86 1014.23 1014.05 1014.11 1013.97 1014.02 1014.59 1014.93 1015.35 1015.85 1016.12 1016.04 1016.91 1017.27 1018.21 1018.96 1019.32 1019.66 1020.17 1020.49 1020.95 1021.09 1021.24 1021.55 1021.75 1022.21 1022.86 1023.24 1023.61 1023.77 1024.04 1024.29 1024.57 1024.66 1024.81 1025.13 1025.44 1025.72 1025.88 1026.03 1026.15 1026.23 1026.29 1026.46 1026.46 1026.56 1026.50 1026.42 1026.29
1014.90 1014.53 1014.42 1014.34 1014.15 1014.15 1014.57 1015.14 1015.52 1016.15 1016.27 1016.19 1017.16 1017.61 1018.25 1018.71 1019.16 1019.46 1019.78 1020.25 1020.77 1021.20 1021.33 1021.55 1021.69 1021.85 1022.35 1022.85 1023.24 1023.54 1023.73 1023.96 1024.13 1024.49 1024.71 1024.98 1025.36 1025.57 1025.77 1025.93 1026.06 1026.18 1026.27 1026.36 1026.45 1026.49 1026.44 1026.40 1026.41
1014.57 1014.66 1014.81 1014.81 1014.67 1014.42 1014.94 1015.41 1015.52 1016.36 1016.45 1016.78 1017.10 1017.78 1018.20 1018.44 1018.75 1019.19 1019.53 1019.98 1020.30 1020.74 1021.11 1021.41 1021.58 1021.98 1022.21 1022.67 1022.91 1023.33 1023.50 1023.74 1024.11 1024.39 1024.60 1024.88 1025.20 1025.41 1025.56 1025.77 1025.92 1026.06 1026.12 1026.17 1026.24 1026.28 1026.35 1026.38 1026.39
1014.77 1015.18 1015.32 1015.34 1015.16 1014.96 1015.04 1015.95 1015.91 1015.96 1016.55 1017.02 1017.48 1017.79 1017.93 1018.03 1018.29 1018.55 1018.84 1019.19 1019.48 1020.04 1020.50 1020.95 1021.30 1021.80 1022.20 1022.53 1022.90 1023.26 1023.59 1023.64 1023.81 1024.28 1024.52 1024.67 1025.01 1025.34 1025.50 1025.76 1025.90 1025.84 1025.92 1025.99 1026.19 1026.31 1026.44 1026.54 1026.48
1015.12 1015.52 1015.98 1015.79 1015.57 1015.49 1015.38 1015.91 1015.98 1016.03 1016.58 1017.07 1017.29 1017.84 1017.87 1017.87 1017.84 1017.95 1018.07 1018.62 1018.91 1019.34 1020.08 1020.51 1020.77 1021.32 1021.83 1022.05 1022.52 1022.99 1023.21 1023.52 1023.78 1023.88 1024.20 1024.53 1024.76 1025.03 1025.32 1025.56 1025.70 1025.69 1025.80 1025.97 1026.15 1026.29 1026.49 1026.57 1026.65
1015.65 1015.80 1015.96 1016.08 1015.81 1015.84 1015.80 1016.09 1016.05 1016.11 1016.62 1017.11 1017.24 1017.62 1017.65 1017.58 1017.66 1017.69 1017.74 1017.98 1018.53 1018.76 1019.62 1020.14 1020.51 1021.04 1021.64 1022.03 1022.45 1022.79 1023.03 1023.23 1023.41 1023.72 1024.10 1024.32 1024.50 1024.71 1025.16 1025.52 1025.62 1025.68 1025.89 1026.05 1026.21 1026.43 1026.70 1026.61 1026.64
1015.86 1015.98 1015.99 1016.13 1016.22 1016.22 1016.34 1016.27 1016.33 1016.29 1016.71 1016.93 1017.07 1017.40 1017.73 1017.61 1017.51 1017.48 1017.59 1017.96 1018.02 1018.43 1018.96 1019.62 1020.19 1020.70 1021.24 1021.82 1022.26 1022.73 1023.16 1023.35 1023.55 1023.74 1023.91 1024.08 1024.31 1024.49 1024.75 1025.09 1025.25 1025.52 1025.85 1025.85 1026.07 1026.32 1026.23 1026.36 1026.39
1015.52 1015.76 1016.18 1016.35 1016.07 1016.35 1016.46 1016.64 1016.53 1016.39 1016.90 1016.83 1017.21 1017.27 1017.70 1017.70 1017.61 1017.77 1017.93 1018.20 1018.27 1018.64 1018.94 1019.24 1019.79 1020.31 1020.87 1021.63 1022.19 1022.64 1022.86 1023.27 1023.51 1023.67 1023.77 1023.91 1024.06 1024.30 1024.47 1024.67 1024.83 1024.93 1025.12 1025.45 1025.66 1025.92 1026.03 1026.10 1026.18
1015.49 1015.80 1016.37 1016.81 1016.55 1016.65 1016.88 1016.89 1016.59 1016.71 1016.72 1016.48 1016.83 1017.23 1017.49 1017.99 1018.10 1018.26 1018.22 1018.47 1018.71 1019.01 1019.27 1019.43 1019.61 1019.89 1020.42 1020.83 1021.48 1022.06 1022.39 1022.79 1022.90 1023.27 1023.56 1023.76 1023.86 1023.94 1024.15 1024.28 1024.54 1024.76 1024.96 1025.18 1025.39 1025.73 1026.00 1026.01 1026.06
1015.42 1015.56 1016.32 1016.55 1017.06 1017.14 1017.27 1017.48 1016.96 1016.46 1016.49 1016.61 1016.63 1017.08 1017.52 1018.01 1018.31 1018.64 1018.86 1019.13 1019.12 1019.45 1019.52 1019.56 1019.59 1019.85 1020.02 1020.52 1021.03 1021.82 1022.40 1022.65 1022.86 1023.05 1023.25 1023.46 1023.70 1023.87 1023.96 1024.09 1024.19 1024.40 1024.77 1024.99 1025.12 1025.42 1025.59 1025.82 1025.77
1015.20 1014.89 1015.71 1016.47 1017.34 1017.74 1017.55 1017.70 1016.80 1016.41 1016.57 1016.86 1017.00 1017.20 1017.85 1018.09 1018.47 1018.83 1019.15 1019.51 1019.63 1019.68 1019.74 1019.72 1019.70 1019.42 1019.59 1020.12 1020.57 1021.43 1022.07 1022.43 1022.65 1022.86 1023.01 1023.04 1023.30 1023.56 1023.74 1024.03 1024.27 1024.35 1024.47 1024.76 1024.83 1024.95 1025.32 1025.67 1025.73
1014.89 1014.92 1015.75 1016.82 1017.70 1018.04 1018.30 1018.45 1016.55 1016.47 1017.03 1016.99 1016.99 1017.29 1018.10 1018.49 1018.84 1019.32 1019.71 1019.81 1019.95 1019.89 1019.86 1019.78 1019.77 1019.77 1019.41 1019.96 1020.05 1020.99 1021.85 1022.39 1022.55 1022.91 1023.18 1023.23 1023.30 1023.60 1023.77 1024.03 1024.28 1024.43 1024.47 1024.60 1024.76 1024.99 1025.16 1025.38 1025.73
1014.79 1015.45 1016.58 1017.65 1018.80 1019.31 1018.51 1018.43 1016.99 1016.53 1015.96 1016.25 1016.89 1017.43 1018.11 1018.60 1019.20 1019.72 1020.11 1020.21 1020.35 1020.25 1020.08 1019.77 1020.06 1020.44 1019.98 1019.99 1020.35 1020.92 1021.72 1022.50 1022.95 1023.18 1023.69 1023.88 1024.17 1024.48 1024.64 1024.44 1024.59 1024.80 1024.86 1024.94 1024.96 1024.97 1025.18 1025.38 1025.51
1014.63 1016.13 1018.11 1019.41 1020.05 1019.60 1019.08 1018.76 1016.80 1015.72 1015.30 1015.32 1016.27 1017.68 1018.41 1018.76 1019.38 1020.04 1020.45 1020.65 1020.70 1020.69 1020.61 1020.44 1020.11 1020.92 1020.72 1020.60 1020.86 1021.39 1022.03 1022.78 1023.28 1023.69 1024.24 1024.83 1024.95 1025.34 1025.63 1025.53 1025.61 1025.77 1025.86 1025.87 1025.75 1025.64 1025.64 1025.48 1025.71
1015.05 1015.57 1017.18 1018.97 1020.36 1020.16 1019.52 1018.18 1016.09 1015.49 1015.21 1015.21 1016.05 1017.28 1018.38 1019.01 1019.45 1020.11 1020.75 1020.84 1020.90 1021.05 1020.88 1021.01 1021.10 1021.31 1021.48 1021.41 1021.95 1022.21 1022.85 1023.66 1024.07 1024.43 1024.88 1025.51 1025.89 1026.22 1026.42 1026.20 1026.28 1026.28 1026.28 1026.21 1026.24 1026.29 1026.29 1026.13 1026.05
1014.79 1015.44 1016.29 1018.49 1020.65 1020.39 1019.05 1017.47 1015.93 1015.60 1015.71 1015.99 1016.69 1017.62 1018.47 1019.30 1019.79 1020.28 1020.81 1021.22 1021.43 1021.55 1021.46 1021.33 1021.62 1021.78 1021.98 1022.20 1022.53 1023.22 1023.91 1024.39 1024.92 1025.16 1025.69 1026.16 1026.39 1026.46 1026.79 1026.72 1026.63 1026.68 1026.71 1026.62 1026.53 1026.55 1026.58 1026.52 1026.49
1013.81 1014.61 1016.17 1017.52 1019.59 1020.25 1018.57 1017.66 1015.94 1015.88 1015.74 1016.28 1016.94 1017.62 1018.49 1019.21 1019.96 1020.58 1021.06 1021.20 1021.63 1021.97 1021.81 1021.69 1021.90 1022.55 1022.85 1023.06 1023.36 1024.06 1024.80 1025.18 1025.59 1025.93 1026.16 1026.62 1026.90 1026.95 1027.03 1027.05 1026.97 1027.12 1027.11 1027.05 1027.04 1027.09 1027.07 1027.02 1026.82
1014.51 1014.43 1015.26 1016.39 1017.68 1018.05 1017.93 1016.37 1014.35 1014.02 1014.49 1015.36 1016.31 1017.15 1018.08 1018.85 1019.67 1020.46 1021.13 1021.55 1021.94 1022.25 1022.30 1022.30 1022.56 1022.87 1023.71 1023.97 1024.36 1024.78 1025.34 1025.75 1026.16 1026.44 1026.84 1026.85 1027.09 1027.31 1027.32 1027.40 1027.28 1027.40 1027.43 1027.40 1027.47 1027.54 1027.34 1027.14 1026.96
1014.06 1013.88 1014.52 1015.65 1016.79 1017.13 1016.83 1014.95 1013.63 1013.71 1013.89 1014.53 1015.68 1016.76 1017.78 1018.66 1019.52 1020.51 1020.98 1021.70 1022.15 1022.46 1022.52 1022.97 1023.32 1023.47 1024.02 1024.38 1024.91 1025.45 1025.77 1026.27 1026.49 1026.87 1027.11 1027.33 1027.31 1027.48 1027.54 1027.66 1027.70 1027.87 1027.89 1027.75 1027.58 1027.50 1027.48 1027.47 1027.32
Wind_Speed
8 8 2 4 5 5 2 2 5 4 5 1 3 11 10 5 3 5 3 16 16 12 8 7 10 11 12 14 12 13 14 16 14 16 16 15 17 18 19 18 17 17 17 16 16 17 18 18 17
5 7 5 3 5 3 5 4 9 7 5 7 8 6 7 5 4 7 8 15 16 12 8 7 11 11 12 13 14 14 15 15 14 15 16 14 15 18 19 18 16 16 16 17 17 17 17 17 16
4 4 3 4 3 3 6 4 8 4 5 3 4 6 5 5 3 6 13 15 15 12 9 8 12 12 12 12 14 14 15 14 13 14 16 15 16 18 18 17 16 16 17 17 17 17 16 15 14
3 4 4 5 2 5 6 6 10 5 5 5 6 8 5 4 7 7 14 14 15 12 9 9 12 12 11 14 15 15 15 15 14 15 15 15 15 14 17 17 15 15 16 16 15 14 13 13 13
3 2 2 1 2 3 4 9 9 6 6 3 6 3 5 4 11 13 15 14 14 11 9 8 11 11 12 13 15 15 14 15 15 14 14 14 14 15 13 16 14 12 12 14 16 14 13 12 12
3 3 3 2 3 4 3 6 8 6 5 7 8 6 2 6 11 9 12 14 12 13 11 9 10 11 10 11 14 15 14 15 14 14 13 12 13 13 12 15 15 14 14 14 14 14 13 12 12
4 4 4 2 6 4 3 3 8 7 6 1 7 6 5 7 8 10 10 12 12 10 9 9 7 8 10 10 11 12 13 13 13 13 12 11 11 11 13 10 14 15 13 12 14 13 11 10 9
3 4 2 2 6 4 6 3 4 6 2 2 6 7 6 7 10 10 12 12 12 9 8 7 8 7 6 6 9 10 12 12 12 11 10 9 9 9 9 8 8 12 12 13 12 11 9 8 6
3 3 1 4 7 6 5 5 3 2 7 5 3 6 11 15 10 8 13 9 9 9 8 8 7 7 7 6 6 8 10 11 9 7 8 7 4 5 7 7 9 10 9 10 10 8 5 4 3
3 3 5 4 7 7 7 6 7 6 5 6 7 11 14 14 10 11 13 10 7 9 9 9 8 7 8 6 6 5 5 4 5 5 5 3 4 4 5 6 8 9 8 9 7 4 2 3 2
3 5 2 3 1 10 10 4 4 10 2 7 16 13 11 9 7 8 9 12 10 8 6 7 9 8 6 6 4 3 3 3 3 6 5 5 4 4 3 3 2 2 4 2 3 1 1 3 1
2 4 1 4 1 6 9 7 6 3 5 9 15 18 10 10 10 9 8 9 11 11 10 9 9 11 7 5 5 5 4 4 4 4 6 4 3 4 3 3 3 3 2 3 2 1 2 2 3
4 2 3 1 6 8 8 5 5 6 3 8 11 13 13 10 9 7 8 8 10 9 8 7 6 6 8 7 5 5 4 4 5 5 5 4 4 3 4 3 3 4 3 3 2 2 2 2 3
7 4 4 1 1 4 8 3 4 4 6 10 12 11 11 12 11 8 8 8 11 12 11 8 8 6 6 4 6 4 4 5 4 4 5 6 4 4 3 3 3 3 3 3 3 4 4 3 3
7 6 3 1 3 4 8 3 4 5 7 10 9 9 10 11 11 12 11 9 12 13 14 13 11 8 6 6 5 4 3 3 4 5 6 6 5 5 4 3 3 4 4 4 3 2 1 2 2
6 6 5 4 5 2 3 5 5 7 9 9 9 8 8 9 10 10 10 9 9 10 15 14 11 11 8 6 4 4 4 4 1 3 4 6 5 5 4 3 3 2 1 2 2 2 3 3 3
1 5 4 2 2 3 1 3 3 7 7 8 8 9 8 7 6 7 9 10 9 10 12 13 13 13 10 8 5 4 4 3 3 3 2 3 5 6 4 3 3 3 1 2 2 1 0 2 3
5 3 3 6 7 2 3 3 5 5 7 9 8 8 8 8 8 6 7 7 8 9 9 11 11 13 10 6 5 4 4 3 3 3 4 5 3 5 5 4 5 4 3 3 1 3 3 3 3
5 5 7 1 4 5 8 5 7 8 5 7 6 9 9 9 4 5 6 6 6 5 5 8 12 12 10 5 6 4 5 3 3 3 5 5 4 5 5 4 4 4 5 4 4 3 4 2 2
5 6 4 2 1 3 6 10 6 7 7 8 9 8 8 6 6 4 5 5 3 1 1 1 7 13 11 8 5 3 3 3 3 4 4 5 5 6 5 5 4 5 3 5 5 4 1 2 3
6 6 6 7 4 1 4 6 6 7 5 4 4 6 6 10 9 6 5 4 4 3 2 1 2 7 10 10 6 4 3 2 3 3 3 4 5 5 4 4 3 3 2 4 4 4 5 3 2
7 5 7 12 6 5 5 6 6 7 7 7 7 7 7 7 6 6 6 4 3 1 3 3 2 4 8 11 9 11 4 3 3 3 3 3 5 5 4 4 3 3 2 3 4 3 4 2 4
5 7 9 5 4 6 3 3 8 7 6 9 9 8 8 8 8 8 7 6 3 2 1 1 3 3 6 6 9 8 5 4 3 3 3 1 1 2 4 4 3 3 2 2 3 2 3 3 2
9 8 9 5 3 1 5 6 6 6 10 6 5 7 9 9 8 7 6 6 3 3 3 5 7 4 6 7 7 8 8 6 4 4 4 4 5 6 7 7 6 5 4 5 4 3 3 3 3
6 5 3 3 1 7 2 2 9 6 8 8 12 10 9 9 9 8 8 6 5 5 5 5 8 7 7 10 9 8 9 8 7 6 5 6 4 5 7 7 7 5 6 6 6 5 5 3 3
7 7 8 7 5 5 2 8 8 3 6 5 10 10 8 8 7 8 7 6 6 6 7 8 8 8 8 11 10 10 12 6 7 8 6 5 5 4 5 6 6 7 6 6 6 4 4 6 5
6 5 6 8 3 4 5 6 7 2 2 6 10 10 9 8 8 9 8 7 6 7 7 8 9 9 10 11 11 11 9 9 8 8 7 5 5 5 6 6 6 6 6 6 6 4 5 5 5
6 8 4 3 6 5 4 5 6 6 10 7 10 11 9 8 8 8 7 7 6 6 6 8 9 9 9 10 10 9 9 9 8 7 8 7 6 6 6 6 6 6 6 6 6 5 5 6 4
3 4 3 6 6 7 2 8 9 14 17 18 14 14 13 11 11 9 7 7 7 6 6 7 8 10 9 9 9 10 9 8 7 8 6 6 6 6 6 6 6 6 6 6 5 5 5 6 6
0 6 5 6 6 1 4 8 3 6 11 16 15 13 10 12 11 9 9 8 8 7 7 7 7 10 8 9 9 9 8 7 8 7 7 6 6 5 6 6 6 5 5 5 5 5 5 5 7
Wind_Direction
315 305 121 42 49 62 249 53 128 71 57 72 78 92 112 53 21 133 115 120 124 120 118 108 102 93 85 105 111 103 96 91 92 94 90 92 98 87 83 79 76 84 83 81 80 72 73 74 73
329 314 41 74 91 66 272 133 98 92 134 98 79 101 54 52 38 109 95 121 121 123 115 105 101 95 91 111 114 105 96 95 97 96 92 87 92 91 86 82 84 85 83 86 83 82 79 77 73
297 207 82 118 124 189 167 139 127 107 84 116 91 72 94 118 116 121 125 126 126 121 119 114 101 95 98 118 115 108 98 96 101 98 89 81 75 89 91 88 79 85 84 86 85 83 82 75 67
332 5 8 87 246 310 122 168 126 93 26 69 115 70 61 233 148 130 131 130 110 111 108 110 104 101 97 121 119 111 107 107 106 96 91 85 78 87 94 89 92 92 92 89 90 86 73 63 57
24 49 58 127 54 43 87 143 128 134 146 99 102 112 82 24 114 118 123 114 115 117 115 113 109 108 99 117 121 114 108 105 102 97 93 86 83 76 91 97 92 77 80 89 87 82 74 62 50
354 100 54 186 171 111 70 154 115 115 141 122 83 103 86 142 119 120 129 119 123 127 124 115 115 110 100 98 117 118 114 109 108 107 103 95 85 74 65 110 108 85 73 80 89 84 71 61 46
132 90 214 76 170 95 158 84 117 144 114 102 143 85 160 135 153 130 132 120 122 123 120 124 118 113 107 105 111 114 112 111 106 102 94 86 82 79 66 84 108 96 86 92 91 87 81 71 51
114 106 327 273 192 154 185 89 78 106 154 126 121 147 183 187 159 130 128 128 128 135 134 131 128 125 119 115 115 118 115 111 111 109 111 108 99 92 77 60 82 100 96 88 87 83 81 76 56
26 74 289 250 149 180 169 119 21 38 93 50 40 148 151 151 141 120 125 128 137 141 144 145 148 144 135 127 123 111 120 116 116 120 129 125 119 102 93 83 77 88 94 97 92 89 83 75 41
101 131 223 277 148 159 145 126 137 93 93 48 60 81 128 142 150 148 144 152 155 152 153 158 152 155 144 137 137 132 131 135 140 142 151 133 138 135 113 101 92 93 93 92 91 83 43 5 326
205 191 228 350 24 137 140 120 132 127 161 182 150 142 144 146 152 152 158 158 165 163 145 168 157 154 146 140 150 149 155 155 158 164 167 151 121 120 126 116 95 105 107 70 88 53 6 287 221
229 255 207 170 357 115 140 149 125 158 188 170 162 152 146 155 167 165 175 161 165 165 158 161 162 159 148 154 165 172 168 172 168 182 160 130 135 146 157 161 167 166 170 182 172 220 253 273 323
208 161 47 54 102 124 109 117 142 134 139 120 136 147 157 159 171 178 177 182 157 164 166 176 160 148 154 162 165 173 175 164 168 160 159 146 155 169 158 191 177 188 178 186 205 211 234 272 286
206 151 130 282 103 88 119 111 116 177 148 112 142 161 166 171 180 179 187 185 170 169 171 175 173 171 144 158 161 169 169 165 156 162 168 168 168 177 174 168 178 186 192 193 197 210 217 235 248
148 105 94 169 268 123 119 63 202 164 159 141 152 177 179 186 183 187 190 183 178 170 171 174 178 177 172 167 159 145 142 113 162 165 178 180 164 189 174 186 204 201 199 201 217 243 281 303 304
135 90 132 238 178 281 109 200 226 176 153 170 169 200 189 203 195 189 181 182 175 156 171 173 175 175 175 166 162 184 180 166 160 155 164 179 189 173 182 189 213 251 233 204 196 217 248 262 264
286 172 151 184 213 164 164 176 194 180 169 187 188 193 196 184 185 188 191 176 173 167 163 174 173 173 170 163 165 170 174 185 193 172 142 162 187 191 167 191 207 205 196 218 217 275 263 273 279
169 158 151 168 212 144 173 142 190 206 180 204 195 188 190 191 204 184 163 181 167 173 172 165 172 169 161 157 150 158 170 174 183 201 204 214 196 202 179 195 202 197 221 237 195 214 229 246 260
165 189 169 237 193 131 195 172 207 206 211 197 191 164 182 190 171 122 101 102 100 106 176 175 160 170 162 152 158 178 183 177 188 191 203 208 206 208 201 206 210 198 203 202 208 204 234 279 228
180 206 152 18 20 116 176 236 223 193 217 196 181 194 185 152 139 95 94 68 52 88 58 192 184 167 170 161 168 155 153 168 173 190 196 203 205 216 216 215 218 212 204 202 209 194 237 249 196
192 176 182 163 161 55 118 299 205 237 197 172 168 139 151 172 160 146 122 85 41 4 5 4 199 176 172 162 158 104 96 95 143 177 186 211 209 230 236 241 225 219 212 225 211 209 212 247 249
204 182 149 138 124 200 150 258 240 208 188 194 190 170 174 145 147 146 129 105 119 305 300 261 259 169 163 166 155 153 164 160 184 178 188 206 206 230 239 266 263 251 234 227 231 216 226 212 255
195 139 142 135 114 109 212 119 264 132 198 217 210 196 196 181 144 138 140 136 114 71 258 233 146 110 140 147 152 151 137 144 121 100 129 152 112 16 19 23 15 343 319 298 281 279 235 211 256
145 88 47 62 80 280 228 159 267 190 200 204 190 189 166 149 136 129 125 118 92 45 66 108 98 77 85 107 130 129 136 145 127 105 93 77 73 52 36 41 39 35 37 43 30 29 354 292 251
109 111 55 26 359 224 359 195 250 236 223 198 180 172 167 145 139 135 135 132 105 86 76 85 98 78 87 93 88 102 89 78 92 90 83 77 63 43 28 35 34 27 24 23 17 13 6 7 350
167 152 146 172 189 218 341 226 243 237 301 176 159 156 152 152 144 138 141 132 122 104 90 84 80 84 72 78 73 78 82 83 74 77 79 69 66 59 38 46 44 38 34 30 23 26 12 11 4
207 181 159 102 21 70 218 285 305 266 99 148 152 153 155 148 146 140 135 124 115 107 98 97 93 87 83 88 88 79 86 90 94 82 80 79 67 64 50 47 50 40 36 31 26 31 18 14 360
164 153 99 7 137 231 268 269 235 233 210 181 167 163 159 152 143 141 142 130 117 115 111 95 92 93 94 90 92 93 91 88 84 82 82 76 69 61 56 48 48 39 35 28 27 20 13 0 350
149 182 169 129 152 166 152 256 216 207 192 187 181 174 168 160 153 148 141 134 129 116 103 100 98 103 95 95 96 97 96 93 88 86 76 78 72 55 52 43 43 36 26 17 23 13 5 355 337
2 203 153 155 223 239 146 266 193 217 195 176 178 173 161 159 153 151 146 142 137 128 118 113 109 110 113 110 103 101 96 91 88 80 73 61 68 56 54 40 40 30 19 8 18 7 351 342 332